TimeEST,TemperatureF,Dew PointF,Humidity,Sea Level PressureIn,VisibilityMPH,Wind Direction,Wind SpeedMPH,Gust SpeedMPH,PrecipitationIn,Events,Conditions,WindDirDegrees,DateUTC
12:54 AM,46.0,41.0,83,30.09,10.0,Calm,Calm,-,N/A,,Mostly Cloudy,0,2011-12-21 05:54:00
1:54 AM,46.0,39.9,79,30.08,10.0,WNW,3.5,-,N/A,,Scattered Clouds,290,2011-12-21 06:54:00
2:54 AM,45.0,41.0,86,30.09,10.0,West,6.9,-,N/A,,Mostly Cloudy,270,2011-12-21 07:54:00
3:54 AM,46.9,43.0,86,30.05,10.0,ESE,5.8,-,N/A,,Overcast,110,2011-12-21 08:54:00
4:54 AM,48.0,44.1,86,30.00,10.0,East,5.8,-,N/A,,Mostly Cloudy,90,2011-12-21 09:54:00
5:54 AM,51.1,46.9,86,30.01,10.0,Calm,Calm,-,0.00,,Scattered Clouds,0,2011-12-21 10:54:00
6:54 AM,51.8,46.4,82,30.03,10.0,ENE,5.8,-,N/A,Rain,Light Rain,60,2011-12-21 11:54:00
7:54 AM,51.8,48.2,88,30.02,10.0,SSE,3.5,-,N/A,,Overcast,150,2011-12-21 12:54:00
8:54 AM,52.0,50.0,93,30.02,7.0,NNE,3.5,-,0.01,Rain,Light Rain,20,2011-12-21 13:54:00
9:54 AM,54.0,51.1,90,30.02,10.0,Calm,Calm,-,0.01,,Overcast,0,2011-12-21 14:54:00
10:54 AM,55.0,52.0,89,29.98,6.0,SE,5.8,-,0.02,Rain,Light Rain,130,2011-12-21 15:54:00
11:20 AM,55.4,53.6,94,29.97,8.0,SE,5.8,-,0.00,,Overcast,140,2011-12-21 16:20:00
11:30 AM,55.4,53.6,94,29.97,8.0,Calm,Calm,-,N/A,,Overcast,0,2011-12-21 16:30:00
11:37 AM,55.4,53.6,94,29.97,8.0,Calm,Calm,-,0.00,,Overcast,0,2011-12-21 16:37:00
11:54 AM,57.0,54.0,89,29.94,10.0,Calm,Calm,-,0.00,,Overcast,0,2011-12-21 16:54:00
12:54 PM,59.0,55.0,87,29.90,10.0,ESE,6.9,-,N/A,,Scattered Clouds,120,2011-12-21 17:54:00
1:54 PM,59.0,55.0,87,29.87,10.0,ENE,5.8,-,0.00,Rain,Light Rain,70,2011-12-21 18:54:00
2:54 PM,59.0,55.0,87,29.88,10.0,North,3.5,-,0.01,,Overcast,10,2011-12-21 19:54:00
3:54 PM,60.8,55.4,82,29.88,10.0,SSW,3.5,-,N/A,,Mostly Cloudy,200,2011-12-21 20:54:00
4:54 PM,59.0,54.0,83,29.88,10.0,Calm,Calm,-,N/A,,Mostly Cloudy,0,2011-12-21 21:54:00
5:54 PM,59.0,54.0,83,29.90,10.0,Calm,Calm,-,N/A,,Mostly Cloudy,0,2011-12-21 22:54:00
6:54 PM,60.1,54.0,80,29.92,10.0,SW,3.5,-,N/A,,Partly Cloudy,220,2011-12-21 23:54:00
7:54 PM,60.1,54.0,80,29.94,10.0,Calm,Calm,-,N/A,,Partly Cloudy,0,2011-12-22 00:54:00
8:12 PM,60.8,53.6,77,29.95,10.0,Variable,3.5,-,N/A,,Mostly Cloudy,0,2011-12-22 01:12:00
8:54 PM,59.0,53.1,81,29.95,10.0,SSW,5.8,-,N/A,,Partly Cloudy,210,2011-12-22 01:54:00
9:54 PM,60.1,53.1,78,29.96,10.0,Calm,Calm,-,N/A,,Clear,0,2011-12-22 02:54:00
10:54 PM,59.0,50.0,72,29.98,10.0,SW,5.8,-,N/A,,Clear,220,2011-12-22 03:54:00
11:54 PM,53.1,48.0,83,29.98,10.0,Calm,Calm,-,N/A,,Clear,0,2011-12-22 04:54:00